| time (UTC) | temp F | wind direction | speed MPH | gust MPH | rain 1hr in | rain 24hr in | rain mn in | humidity % | barometer mb |
| 20260831060109 | 73 | 244 | 2.0 | 3.0 | 0.00 | 0.00 | 0.00 | 59 | 1008.8 |
| 20260831054556 | 74 | 242 | 2.0 | 3.0 | 0.00 | 0.00 | 0.00 | 58 | 1008.7 |
| 20260831053119 | 73 | 225 | 2.0 | 3.0 | 0.00 | 0.00 | 0.00 | 58 | 1008.4 |
| 20260831051602 | 75 | 214 | 4.0 | 7.0 | 0.00 | 0.00 | 0.00 | 56 | 1008.5 |
| 20260831050047 | 80 | 269 | 1.0 | 6.0 | 0.00 | 0.00 | 0.00 | 42 | 1008.3 |
| 20260831044546 | 77 | 303 | 3.0 | 5.0 | 0.00 | 0.00 | 0.00 | 48 | 1008.0 |
| 20260831043045 | 78 | 295 | 5.0 | 8.0 | 0.00 | 0.00 | 0.00 | 45 | 1007.9 |
| 20260831041545 | 75 | 315 | 1.0 | 4.0 | 0.00 | 0.00 | 0.00 | 53 | 1007.7 |
| 20260831040045 | 79 | 307 | 2.0 | 5.0 | 0.00 | 0.00 | 0.00 | 46 | 1008.0 |
| 20260831034549 | 81 | 299 | 5.0 | 8.0 | 0.00 | 0.00 | 0.00 | 40 | 1008.3 |
| 20260831033102 | 78 | 307 | 3.0 | 5.0 | 0.00 | 0.00 | 0.00 | 45 | 1008.3 |
| 20260831031543 | 78 | 310 | 3.0 | 5.0 | 0.00 | 0.00 | 0.00 | 49 | 1008.2 |
| 20260831030042 | 78 | 312 | 3.0 | 6.0 | 0.00 | 0.00 | 0.00 | 49 | 1008.2 |
| 20260831024542 | 79 | 323 | 5.0 | 8.0 | 0.00 | 0.00 | 0.00 | 48 | 1008.3 |
| 20260831023040 | 80 | 294 | 7.0 | 14.0 | 0.00 | 0.00 | 0.00 | 49 | 1008.4 |
| 20260831021539 | 81 | 300 | 12.0 | 22.0 | 0.00 | 0.00 | 0.00 | 50 | 1008.1 |
| 20260831020043 | 81 | 276 | 1.0 | 2.0 | 0.00 | 0.00 | 0.00 | 52 | 1007.2 |
| 20260831014537 | 82 | 225 | 1.0 | 2.0 | 0.00 | 0.00 | 0.00 | 52 | 1007.2 |
| 20260831013039 | 81 | 158 | 1.0 | 2.0 | 0.00 | 0.00 | 0.00 | 55 | 1006.8 |
| 20260831011543 | 83 | 146 | 0.0 | 1.0 | 0.00 | 0.00 | 0.00 | 51 | 1006.6 |
| 20260831010035 | 84 | 139 | 1.0 | 2.0 | 0.00 | 0.00 | 0.00 | 53 | 1006.5 |
| 20260831004535 | 87 | 129 | 1.0 | 2.0 | 0.00 | 0.00 | 0.00 | 49 | 1006.5 |
| 20260831003037 | 89 | 146 | 1.0 | 4.0 | 0.00 | 0.00 | 0.00 | 44 | 1006.5 |
| 20260831001534 | 90 | 150 | 3.0 | 6.0 | 0.00 | 0.00 | 0.00 | 42 | 1006.6 |
| 20260831000037 | 90 | 164 | 3.0 | 6.0 | 0.00 | 0.00 | 0.00 | 41 | 1006.7 |
| 20260830234537 | 91 | 146 | 4.0 | 6.0 | 0.00 | 0.00 | 0.00 | 38 | 1006.7 |
| 20260830233036 | 92 | 130 | 5.0 | 9.0 | 0.00 | 0.00 | 0.00 | 38 | 1006.4 |
| 20260830231531 | 92 | 94 | 3.0 | 6.0 | 0.00 | 0.00 | 0.00 | 37 | 1006.3 |
| 20260830230033 | 92 | 76 | 4.0 | 7.0 | 0.00 | 0.00 | 0.00 | 37 | 1006.1 |
| 20260830224530 | 92 | 73 | 5.0 | 10.0 | 0.00 | 0.00 | 0.00 | 36 | 1006.1 |
| 20260830223030 | 92 | 84 | 5.0 | 8.0 | 0.00 | 0.00 | 0.00 | 40 | 1006.1 |
| 20260830221537 | 91 | 76 | 3.0 | 6.0 | 0.00 | 0.00 | 0.00 | 40 | 1005.9 |
| 20260830220029 | 92 | 67 | 5.0 | 9.0 | 0.00 | 0.00 | 0.00 | 36 | 1005.8 |
| 20260830214528 | 92 | 77 | 7.0 | 11.0 | 0.00 | 0.00 | 0.00 | 36 | 1005.8 |
| 20260830213033 | 91 | 75 | 4.0 | 7.0 | 0.00 | 0.00 | 0.00 | 37 | 1005.8 |
| 20260830211527 | 92 | 75 | 3.0 | 7.0 | 0.00 | 0.00 | 0.00 | 36 | 1005.8 |
| 20260830210027 | 93 | 77 | 0.0 | 5.0 | 0.00 | 0.00 | 0.00 | 31 | 1006.0 |
| 20260830204526 | 94 | 274 | 3.0 | 9.0 | 0.00 | 0.00 | 0.00 | 32 | 1006.0 |
| 20260830203023 | 94 | 252 | 2.0 | 6.0 | 0.00 | 0.00 | 0.00 | 30 | 1006.2 |
| 20260830201522 | 93 | 313 | 3.0 | 8.0 | 0.00 | 0.00 | 0.00 | 32 | 1006.2 |
| 20260830200020 | 93 | 271 | 2.0 | 7.0 | 0.00 | 0.00 | 0.00 | 30 | 1006.5 |
| 20260830194518 | 92 | 335 | 2.0 | 13.0 | 0.00 | 0.00 | 0.00 | 30 | 1006.5 |
| 20260830193017 | 92 | 292 | 4.0 | 8.0 | 0.00 | 0.00 | 0.00 | 29 | 1006.5 |
| 20260830191517 | 91 | 322 | 2.0 | 8.0 | 0.00 | 0.00 | 0.00 | 33 | 1006.4 |
| 20260830190014 | 90 | 225 | 3.0 | 8.0 | 0.00 | 0.00 | 0.00 | 35 | 1006.6 |
| 20260830184511 | 89 | 279 | 1.0 | 7.0 | 0.00 | 0.00 | 0.00 | 40 | 1006.6 |
| 20260830183008 | 89 | 317 | 2.0 | 9.0 | 0.00 | 0.00 | 0.00 | 36 | 1006.7 |
| 20260830181506 | 88 | 1 | 5.0 | 10.0 | 0.00 | 0.00 | 0.00 | 37 | 1006.8 |
| 20260830180003 | 87 | 14 | 6.0 | 10.0 | 0.00 | 0.00 | 0.00 | 38 | 1007.0 |
| 20260830174505 | 87 | 313 | 5.0 | 10.0 | 0.00 | 0.00 | 0.00 | 39 | 1007.3 |
| 20260830173126 | 87 | 314 | 5.0 | 9.0 | 0.00 | 0.00 | 0.00 | 37 | 1007.5 |
| 20260830171605 | 86 | 290 | 5.0 | 10.0 | 0.00 | 0.00 | 0.00 | 39 | 1007.7 |
| 20260830170054 | 85 | 323 | 2.0 | 5.0 | 0.00 | 0.00 | 0.00 | 43 | 1007.9 |
| 20260830164551 | 84 | 261 | 1.0 | 8.0 | 0.00 | 0.00 | 0.00 | 45 | 1007.8 |
| 20260830163050 | 82 | 295 | 5.0 | 11.0 | 0.00 | 0.00 | 0.00 | 49 | 1007.7 |
| 20260830161600 | 80 | 321 | 4.0 | 10.0 | 0.00 | 0.00 | 0.00 | 53 | 1007.5 |
| 20260830160040 | 77 | 297 | 3.0 | 8.0 | 0.00 | 0.00 | 0.00 | 61 | 1007.6 |
| 20260830154540 | 77 | 329 | 5.0 | 9.0 | 0.00 | 0.00 | 0.00 | 60 | 1007.2 |
| 20260830153041 | 77 | 295 | 4.0 | 8.0 | 0.00 | 0.00 | 0.00 | 61 | 1007.6 |
| 20260830151542 | 77 | 297 | 5.0 | 10.0 | 0.00 | 0.00 | 0.00 | 60 | 1007.2 |
| 20260830150037 | 76 | 304 | 4.0 | 8.0 | 0.00 | 0.00 | 0.00 | 62 | 1007.6 |
| 20260830144547 | 76 | 276 | 4.0 | 7.0 | 0.00 | 0.00 | 0.00 | 63 | 1007.5 |
| 20260830143032 | 74 | 296 | 6.0 | 12.0 | 0.00 | 0.00 | 0.00 | 65 | 1006.6 |
| 20260830141531 | 75 | 296 | 6.0 | 11.0 | 0.00 | 0.00 | 0.00 | 63 | 1006.8 |
| 20260830140031 | 74 | 289 | 6.0 | 11.0 | 0.00 | 0.00 | 0.00 | 66 | 1006.8 |
| 20260830134530 | 72 | 289 | 8.0 | 12.0 | 0.00 | 0.00 | 0.00 | 70 | 1006.8 |
| 20260830133031 | 71 | 297 | 4.0 | 7.0 | 0.00 | 0.00 | 0.00 | 74 | 1007.0 |
| 20260830131527 | 68 | 234 | 0.0 | 3.0 | 0.00 | 0.00 | 0.00 | 82 | 1006.9 |
| 20260830130025 | 67 | 233 | 0.0 | 5.0 | 0.00 | 0.00 | 0.00 | 82 | 1006.7 |
| 20260830124533 | 67 | 313 | 5.0 | 6.0 | 0.00 | 0.00 | 0.00 | 83 | 1006.4 |
| 20260830123023 | 66 | 275 | 3.0 | 8.0 | 0.00 | 0.00 | 0.00 | 86 | 1006.2 |
| 20260830121522 | 66 | 284 | 5.0 | 8.0 | 0.00 | 0.00 | 0.00 | 85 | 1006.0 |
| 20260830120021 | 66 | 286 | 3.0 | 6.0 | 0.00 | 0.00 | 0.00 | 84 | 1005.9 |
| 20260830114520 | 66 | 286 | 3.0 | 8.0 | 0.00 | 0.00 | 0.00 | 84 | 1005.8 |
| 20260830113023 | 66 | 295 | 3.0 | 7.0 | 0.00 | 0.00 | 0.00 | 84 | 1005.7 |
| 20260830111520 | 66 | 295 | 2.0 | 7.0 | 0.00 | 0.00 | 0.00 | 84 | 1005.7 |
| 20260830110020 | 66 | 313 | 3.0 | 5.0 | 0.00 | 0.00 | 0.00 | 84 | 1005.5 |
| 20260830104518 | 66 | 287 | 1.0 | 3.0 | 0.00 | 0.00 | 0.00 | 83 | 1005.3 |
| 20260830103029 | 66 | 274 | 0.0 | 4.0 | 0.00 | 0.00 | 0.00 | 83 | 1005.4 |
| 20260830101516 | 67 | 241 | 2.0 | 5.0 | 0.00 | 0.00 | 0.00 | 81 | 1005.6 |
| 20260830100013 | 67 | 269 | 3.0 | 6.0 | 0.00 | 0.00 | 0.00 | 80 | 1005.5 |
| 20260830094512 | 67 | 255 | 3.0 | 6.0 | 0.00 | 0.00 | 0.00 | 80 | 1005.7 |
| 20260830093015 | 67 | 259 | 3.0 | 6.0 | 0.00 | 0.00 | 0.00 | 79 | 1005.7 |
| 20260830091510 | 68 | 274 | 3.0 | 6.0 | 0.00 | 0.00 | 0.00 | 78 | 1005.5 |
| 20260830090008 | 68 | 281 | 2.0 | 7.0 | 0.00 | 0.00 | 0.00 | 78 | 1005.7 |
| 20260830084507 | 68 | 274 | 2.0 | 4.0 | 0.00 | 0.00 | 0.00 | 79 | 1005.6 |
| 20260830083006 | 68 | 266 | 3.0 | 4.0 | 0.00 | 0.00 | 0.00 | 79 | 1005.6 |
| 20260830081506 | 69 | 274 | 0.0 | 1.0 | 0.00 | 0.00 | 0.00 | 77 | 1005.6 |
| 20260830080004 | 69 | 276 | 0.0 | 0.0 | 0.00 | 0.10 | 0.00 | 78 | 1005.5 |
| 20260830074504 | 69 | 205 | 0.0 | 0.0 | 0.00 | 0.10 | 0.00 | 76 | 1005.5 |
| 20260830073101 | 70 | 205 | 0.0 | 0.0 | 0.00 | 0.10 | 0.00 | 75 | 1005.5 |
| 20260830071558 | 71 | 29 | 0.0 | 2.0 | 0.00 | 0.10 | 0.00 | 74 | 1005.2 |
| 20260830070054 | 72 | 34 | 2.0 | 4.0 | 0.00 | 0.24 | 0.00 | 71 | 1005.7 |
| 20260830064605 | 73 | 11 | 5.0 | 10.0 | 0.00 | 0.24 | 0.00 | 69 | 1005.5 |
| 20260830063050 | 73 | 358 | 8.0 | 15.0 | 0.00 | 0.24 | 0.00 | 68 | 1005.6 |
| 20260830061549 | 74 | 354 | 10.0 | 19.0 | 0.00 | 0.24 | 0.00 | 67 | 1005.4 |